Meteo pe oră la Bolshoe Minino

Astăzi, 9 Mai, Duminică

Timp Temperatura Precipitaţii Vânt Presiune Umiditate
00:00 +7°C° 0.3 mm 3 m/s 728 mmHg 95%
01:00 +7°C° 0.3 mm 3 m/s 728 mmHg 96%
02:00 +5°C° 0 mm 4 m/s 729 mmHg 95%
03:00 +3°C° 0.5 mm 5 m/s 729 mmHg 96%
04:00 +3°C° 0.5 mm 6 m/s 730 mmHg 96%
05:00 +2°C° 0.5 mm 7 m/s 730 mmHg 96%
06:00 +2°C° 0.2 mm 7 m/s 731 mmHg 96%
07:00 0°C° 0.2 mm 7 m/s 732 mmHg 95%
08:00 0°C° 0 mm 7 m/s 733 mmHg 94%
09:00 +2°C° 0.1 mm 7 m/s 733 mmHg 94%
10:00 +2°C° 0.1 mm 7 m/s 734 mmHg 94%
11:00 +1°C° 0.1 mm 8 m/s 734 mmHg 93%
12:00 +2°C° 0.2 mm 8 m/s 735 mmHg 87%
13:00 +4°C° 0.2 mm 8 m/s 736 mmHg 82%
14:00 +5°C° 0.2 mm 8 m/s 736 mmHg 76%
15:00 +5°C° 0.1 mm 8 m/s 737 mmHg 74%
16:00 +5°C° 0.1 mm 7 m/s 737 mmHg 72%
17:00 +5°C° 0.1 mm 6 m/s 738 mmHg 71%
18:00 +5°C° 0 mm 5 m/s 738 mmHg 74%
19:00 +4°C° 0 mm 4 m/s 739 mmHg 78%
20:00 +3°C° 0 mm 4 m/s 739 mmHg 82%
21:00 +3°C° 0 mm 4 m/s 740 mmHg 82%
22:00 +3°C° 0 mm 4 m/s 740 mmHg 82%
23:00 +1°C° 0 mm 4 m/s 740 mmHg 82%

Mâine, 10 Mai, Luni

Timp Temperatura Precipitaţii Vânt Presiune Umiditate
00:00 +1°C° 0 mm 4 m/s 741 mmHg 82%
01:00 +1°C° 0 mm 4 m/s 741 mmHg 83%
02:00 0°C° 0 mm 4 m/s 742 mmHg 83%
03:00 +1°C° 0 mm 4 m/s 742 mmHg 82%
04:00 +1°C° 0 mm 4 m/s 742 mmHg 80%
05:00 +1°C° 0 mm 4 m/s 743 mmHg 79%
06:00 +3°C° 0 mm 5 m/s 743 mmHg 72%
07:00 +4°C° 0 mm 6 m/s 743 mmHg 66%
08:00 +6°C° 0 mm 7 m/s 744 mmHg 60%
09:00 +8°C° 0 mm 7 m/s 744 mmHg 56%
10:00 +9°C° 0 mm 7 m/s 744 mmHg 51%
11:00 +9°C° 0 mm 8 m/s 744 mmHg 47%
12:00 +10°C° 0 mm 8 m/s 743 mmHg 48%
13:00 +10°C° 0 mm 8 m/s 743 mmHg 49%
14:00 +11°C° 0 mm 8 m/s 743 mmHg 50%
15:00 +10°C° 0 mm 8 m/s 743 mmHg 54%
16:00 +10°C° 0 mm 7 m/s 743 mmHg 57%
17:00 +10°C° 0 mm 7 m/s 743 mmHg 61%
18:00 +9°C° 0 mm 7 m/s 743 mmHg 62%
19:00 +8°C° 0 mm 7 m/s 743 mmHg 62%
20:00 +8°C° 0 mm 7 m/s 743 mmHg 63%
21:00 +6°C° 0 mm 7 m/s 743 mmHg 65%
22:00 +6°C° 0 mm 7 m/s 743 mmHg 68%
23:00 +6°C° 0 mm 7 m/s 743 mmHg 70%

Poimâine, 11 Mai, Marţi

Timp Temperatura Precipitaţii Vânt Presiune Umiditate
00:00 +5°C° 0 mm 7 m/s 742 mmHg 72%
01:00 +5°C° 0 mm 7 m/s 742 mmHg 75%
02:00 +5°C° 0 mm 7 m/s 742 mmHg 77%
03:00 +5°C° 0 mm 7 m/s 742 mmHg 79%
04:00 +5°C° 0 mm 7 m/s 742 mmHg 81%
05:00 +6°C° 0 mm 7 m/s 742 mmHg 83%
06:00 +8°C° 0 mm 7 m/s 742 mmHg 82%
07:00 +9°C° 0 mm 7 m/s 742 mmHg 82%
08:00 +10°C° 0 mm 7 m/s 742 mmHg 81%
09:00 +11°C° 0 mm 7 m/s 742 mmHg 78%
10:00 +14°C° 0 mm 7 m/s 742 mmHg 75%
11:00 +16°C° 0 mm 8 m/s 742 mmHg 71%
12:00 +15°C° 0.1 mm 7 m/s 742 mmHg 75%
13:00 +14°C° 0.1 mm 6 m/s 742 mmHg 79%
14:00 +14°C° 0.1 mm 6 m/s 743 mmHg 83%
15:00 +14°C° 0 mm 5 m/s 743 mmHg 82%
16:00 +13°C° 0 mm 5 m/s 743 mmHg 82%
17:00 +13°C° 0 mm 5 m/s 743 mmHg 81%
18:00 +12°C° 0 mm 4 m/s 743 mmHg 84%
19:00 +10°C° 0 mm 3 m/s 743 mmHg 87%
20:00 +9°C° 0 mm 3 m/s 743 mmHg 90%
21:00 +9°C° 0 mm 3 m/s 744 mmHg 88%
22:00 +9°C° 0 mm 2 m/s 744 mmHg 87%
23:00 +8°C° 0 mm 2 m/s 744 mmHg 86%

12 Mai, Miercuri

Timp Temperatura Precipitaţii Vânt Presiune Umiditate
00:00 +8°C° 0.2 mm 2 m/s 744 mmHg 87%
01:00 +8°C° 0.2 mm 2 m/s 743 mmHg 87%
02:00 +8°C° 0.2 mm 2 m/s 743 mmHg 88%
03:00 +8°C° 0.4 mm 2 m/s 743 mmHg 89%
04:00 +8°C° 0.4 mm 2 m/s 743 mmHg 91%
05:00 +8°C° 0.4 mm 2 m/s 743 mmHg 92%
06:00 +9°C° 0 mm 2 m/s 743 mmHg 86%
07:00 +10°C° 0 mm 3 m/s 743 mmHg 80%
08:00 +11°C° 0 mm 4 m/s 742 mmHg 75%
09:00 +12°C° 0 mm 4 m/s 742 mmHg 70%
10:00 +14°C° 0 mm 5 m/s 742 mmHg 65%
11:00 +15°C° 0 mm 5 m/s 742 mmHg 60%
12:00 +14°C° 0.1 mm 5 m/s 742 mmHg 65%
13:00 +13°C° 0.1 mm 6 m/s 741 mmHg 69%
14:00 +13°C° 0.1 mm 6 m/s 741 mmHg 74%
15:00 +13°C° 0.1 mm 6 m/s 741 mmHg 77%
16:00 +13°C° 0.1 mm 5 m/s 740 mmHg 80%
17:00 +12°C° 0.1 mm 5 m/s 740 mmHg 82%
18:00 +12°C° 0.1 mm 4 m/s 740 mmHg 85%
19:00 +11°C° 0.1 mm 4 m/s 740 mmHg 88%
20:00 +10°C° 0.1 mm 3 m/s 740 mmHg 91%
21:00 +10°C° 0 mm 4 m/s 740 mmHg 92%
22:00 +8°C° 0 mm 4 m/s 740 mmHg 93%
23:00 +8°C° 0 mm 4 m/s 740 mmHg 94%

13 Mai, Joi

Timp Temperatura Precipitaţii Vânt Presiune Umiditate
00:00 +8°C° 0 mm 4 m/s 740 mmHg 93%
01:00 +8°C° 0 mm 4 m/s 740 mmHg 93%
02:00 +8°C° 0 mm 4 m/s 739 mmHg 92%
03:00 +8°C° 0 mm 4 m/s 740 mmHg 92%
04:00 +9°C° 0 mm 3 m/s 740 mmHg 92%
05:00 +9°C° 0 mm 3 m/s 740 mmHg 92%
06:00 +11°C° 0 mm 3 m/s 740 mmHg 86%
07:00 +13°C° 0 mm 4 m/s 740 mmHg 79%
08:00 +14°C° 0 mm 4 m/s 740 mmHg 73%
09:00 +15°C° 0 mm 5 m/s 740 mmHg 69%
10:00 +17°C° 0 mm 5 m/s 740 mmHg 64%
11:00 +19°C° 0 mm 5 m/s 740 mmHg 59%
12:00 +19°C° 0 mm 5 m/s 740 mmHg 58%
13:00 +20°C° 0 mm 5 m/s 739 mmHg 56%
14:00 +20°C° 0 mm 5 m/s 739 mmHg 55%
15:00 +20°C° 0 mm 4 m/s 739 mmHg 59%
16:00 +20°C° 0 mm 4 m/s 739 mmHg 62%
17:00 +19°C° 0 mm 3 m/s 739 mmHg 66%
18:00 +18°C° 0 mm 3 m/s 739 mmHg 71%
19:00 +17°C° 0 mm 3 m/s 738 mmHg 75%
20:00 +14°C° 0 mm 3 m/s 738 mmHg 80%
21:00 +14°C° 0 mm 3 m/s 738 mmHg 83%
22:00 +13°C° 0 mm 3 m/s 738 mmHg 86%
23:00 +13°C° 0 mm 3 m/s 738 mmHg 90%

14 Mai, Vineri

Timp Temperatura Precipitaţii Vânt Presiune Umiditate
00:00 +13°C° 0 mm 3 m/s 738 mmHg 91%
01:00 +12°C° 0 mm 3 m/s 737 mmHg 92%
02:00 +12°C° 0 mm 3 m/s 737 mmHg 93%
03:00 +12°C° 0 mm 3 m/s 737 mmHg 92%
04:00 +13°C° 0 mm 4 m/s 737 mmHg 91%
05:00 +13°C° 0 mm 4 m/s 737 mmHg 90%
06:00 +14°C° 0 mm 4 m/s 737 mmHg 85%
07:00 +16°C° 0 mm 5 m/s 737 mmHg 80%
08:00 +17°C° 0 mm 6 m/s 737 mmHg 74%
09:00 +20°C° 0 mm 6 m/s 737 mmHg 71%
10:00 +21°C° 0 mm 7 m/s 737 mmHg 68%
11:00 +22°C° 0 mm 7 m/s 737 mmHg 65%
12:00 +23°C° 0 mm 7 m/s 736 mmHg 64%
13:00 +23°C° 0 mm 7 m/s 736 mmHg 64%
14:00 +24°C° 0 mm 7 m/s 736 mmHg 63%
15:00 +23°C° 0 mm 6 m/s 736 mmHg 65%
16:00 +22°C° 0 mm 6 m/s 736 mmHg 68%
17:00 +21°C° 0 mm 6 m/s 735 mmHg 70%
18:00 +20°C° 0 mm 5 m/s 735 mmHg 75%
19:00 +19°C° 0 mm 4 m/s 735 mmHg 80%
20:00 +18°C° 0 mm 3 m/s 735 mmHg 84%
21:00 +17°C° 0 mm 3 m/s 735 mmHg 86%
22:00 +17°C° 0 mm 3 m/s 735 mmHg 87%
23:00 +17°C° 0 mm 3 m/s 735 mmHg 88%
Arată mai mult

Formular de consimțământ

Meteoprog și furnizorii noștri de servicii pot stoca și accesa date personale, precum cookies, identificatori de dispozitiv sau alte tehnologii similare pe dispozitivul dumneavoastră și procesa astfel de date pentru a personaliza conținutul și reclamele, dar și pentru a oferi caracteristici de social media și pentru a analiza traficul.

  • Stocarea și/sau accesarea informațiilor pe dispozitivul dumneavoastră

    Cookies, identificatori de dispozitiv sau alte informații pot fi stocate sau accesate pe dispozitiv în scopurile indicate mai sus.

  • Reclame și conținut personalizat, evaluarea reclamelor și a conținutului, informații despre audiențe și dezvoltarea produselor

    Reclamele și conținutul pot fi personalizate pe baza unui profil. Pot fi adăugate date suplimentare pentru a personaliza mai bine reclamele și conținutul. Performanța reclamelor și conținutului poate fi măsurată. Pot fi obținute informații despre utilizatorii care au văzut reclamele și conținutul. Aceste date pot fi utilizate pentru a dezvolta sau îmbunătăți experiența utilizatorilor, sistemele și software-ul.

Dând clic pe ‘Sunt de acord’, permiteți utilizarea cookie-urilor menționate, a identificatorilor de dispozitiv, balizelor web sau altor tehnologii similare. Setările pot fi modificate din browser-ul dispozitivului dumneavoastră.

În anumite scopuri, interesele legitime pot prima asupra consimțământului. Puteți citi mai multe informații în acest sens în Politica privind Confidențialitatea Datelor și Cookie.